www.pogodaiklimat.ru

Погода и климат >> Архив погоды >> Великобритания >> Инвербери


ПОГОДА в Инвербери

  • Прогноз погоды в Инвербери
  • Монитор погоды в Инвербери

АРХИВ ПОГОДЫ в Инвербери

Время (UTC), дата Ветер
(напр.,м/с)
 
Видим.   Явления Облачность Т
(С)
Тd
(С)
f
(%)
Тe
(С)
Тes
(С)
Комфортность P
(гПа)
Po
(гПа)
Тmin
(С)
Tmax
(С)
R
(мм)
R24
(мм)
S
(см)
10 12.06 С 15-21
{21}
22 км н/о +9.6 +8.1 90 +4 +4 1017.0 1000.7
11 12.06 С 13-19
{21}
11 км н/о +9.3 +8.2 93 +4 +4 1017.5 1001.2
12 12.06 С 12-18
{19}
13 км н/о +9.8 +8.8 93 +5 +5 1016.9 1000.6
13 12.06 С 12
{20}
5000 м в посл. час дождь н/о +9.9 +9.4 97 +5 +5 1016.2 1000.0
14 12.06 С 12
{17}
10 км н/о +10.1 +9.5 96 +5 +5 1016.1 999.8
15 12.06 С 13
{17}
5000 м ливневой дождь н/о +10.1 +9.7 97 +5 +5 1015.8 999.6
16 12.06 С 12
{17}
7000 м слаб. морось с дождем н/о +10.3 +9.9 97 +5 +5 1015.6 999.4
17 12.06 С 12
{16}
5000 м слаб. морось н/о +10.0 +9.6 97 +5 +5 1015.2 998.9
18 12.06 С 11
{16}
4300 м слаб. морось н/о +9.7 +9.4 98 +5 +5 1014.8 998.5 +10.5 2
19 12.06 С 11
{15}
5000 м слаб. дождь н/о +9.3 +9.1 99 +4 +4 1015.1 998.8
20 12.06 С 11
{15}
7000 м слаб. дождь н/о +9.1 +8.9 99 +4 +4 1015.0 998.7
21 12.06 С 11
{15}
5000 м слаб. дождь н/о +8.8 +8.6 99 +3 +3 1014.4 998.1
22 12.06 С 13
{17}
9000 м в посл. час дождь н/о +8.6 +8.3 98 +3 +3 1013.6 997.3
23 12.06 С 13
{19}
9000 м дымка н/о +8.2 +7.9 98 +2 +2 1012.3 996.0
00 13.06 С 14
{19}
7000 м слаб. морось н/о +7.9 +7.6 98 +2 +2 1011.4 995.0 3
01 13.06 С 12-17
{19}
9000 м в посл. час морось н/о +7.7 +7.3 97 +2 +2 1010.3 994.0
02 13.06 С 12
{19}
8000 м дымка н/о +7.5 +7.0 97 +1 +1 1009.8 993.5
03 13.06 С 12
{16}
11 км в посл. час дождь н/о +7.1 +6.7 97 +1 +1 1008.9 992.6
04 13.06 С 11
{16}
5000 м слаб. ливневой дождь н/о +6.7 +6.3 97 0 0 1008.4 992.0
05 13.06 С 12
{17}
18 км в посл. час дождь н/о +6.6 +6.2 97 0 0 1007.0 990.6
06 13.06 С 13-18
{18}
40 км н/о +6.7 +5.7 93 0 0 1006.6 990.3 +6.5 3
07 13.06 С 11
{17}
7000 м дождь н/о +6.4 +5.8 96 0 0 1006.0 989.6
08 13.06 С 12-17
{17}
6000 м дождь н/о +6.2 +5.7 97 -1 -1 1004.9 988.6
09 13.06 С 11-16
{17}
10 км дождь н/о +6.4 +5.8 96 0 0 1004.4 988.1
10 13.06 СЗ 10
{15}
10 км слаб. дождь н/о +6.7 +6.1 96 +1 +1 1004.0 987.7
11 13.06 СЗ 10
{14}
9000 м дождь н/о +7.1 +6.4 95 +1 +1 1003.4 987.2
12 13.06 СЗ 10
{16}
27 км слаб. дождь н/о +7.4 +6.4 93 +2 +2 1002.5 986.3 6
13 13.06 СЗ 9
{15}
12 км слаб. дождь н/о +8.0 +6.8 92 +3 +3 1002.0 985.9
14 13.06 СЗ 8
{14}
17 км слаб. дождь н/о +7.8 +6.6 92 +3 +3 1001.5 985.3
15 13.06 СЗ 8 14 км слаб. морось с дождем н/о +7.8 +6.6 92 +3 +3 1001.1 984.9
16 13.06 СЗ 8 12 км слаб. дождь н/о +7.6 +6.7 94 +2 +2 1000.7 984.5
17 13.06 З 7 12 км слаб. дождь н/о +7.8 +6.9 94 +3 +3 1000.5 984.4
18 13.06 З 7 13 км слаб. дождь н/о +7.9 +7.2 95 +3 +3 1000.5 984.3 +8.2 9
19 13.06 З 6 21 км слаб. дождь н/о +7.7 +7.0 95 +3 +3 1000.6 984.4
20 13.06 З 7 50 км в посл. час дождь н/о +7.8 +6.5 91 +3 +3 1000.8 984.7
21 13.06 З 5 50 км в посл. час дождь н/о +7.7 +6.7 93 +4 +4 1001.4 985.2
22 13.06 З 4 45 км слаб. ливневой дождь н/о +7.9 +7.3 96 +5 +5 1001.6 985.4
23 13.06 З 2 40 км слаб. ливневой дождь н/о +7.9 +7.4 97 +6 +6 1002.0 985.8
00 14.06 ЮЗ 6 30 км в посл. час дождь н/о +7.8 +7.4 97 +3 +3 1002.2 986.0 0.6
01 14.06 Ю 5 10 км н/о +8.4 +8.0 97 +5 +5 1002.1 986.0
02 14.06 Ю 7 18 км слаб. морось с дождем н/о +8.5 +8.3 99 +4 +4 1002.0 985.8
03 14.06 ЮЗ 5 22 км в посл. час дождь н/о +8.1 +7.7 97 +4 +4 1002.2 986.1
04 14.06 Ю 8 35 км в посл. час морось н/о +8.3 +8.0 98 +4 +4 1002.4 986.3
05 14.06 Ю 7 17 км н/о +8.6 +8.3 98 +4 +4 1002.7 986.6
06 14.06 Ю 8 20 км в посл. час дождь н/о +8.6 +7.9 95 +4 +4 1003.2 987.0 +7.6 0.8
07 14.06 Ю 9 18 км н/о +9.1 +7.7 91 +4 +4 1003.6 987.5
08 14.06 Ю 9 23 км н/о +10.1 +7.1 82 +6 +6 1004.2 988.1
09 14.06 Ю 8 23 км н/о +10.3 +7.9 85 +6 +6 1004.9 988.8
10 14.06 Ю 9 22 км н/о +11.1 +7.3 77 +7 +7 1005.3 989.3
11 14.06 Ю 8 30 км н/о +10.6 +7.4 81 +7 +7 1005.8 989.7
12 14.06 Ю 8 27 км н/о +10.7 +8.2 85 +7 +7 1006.0 989.9
13 14.06 Ю 8 28 км н/о +11.2 +8.9 86 +8 +8 1006.4 990.4
14 14.06 Ю 8 25 км н/о +11.0 +8.6 85 +7 +7 1006.9 990.8
15 14.06 ЮВ 9 35 км н/о +10.2 +7.8 85 +6 +6 1007.0 990.9
16 14.06 ЮВ 6 21 км н/о +10.7 +9.2 90 +7 +7 1007.2 991.1
17 14.06 ЮВ 7 40 км н/о +10.0 +8.3 89 +6 +6 1007.8 991.6
18 14.06 ЮВ 4 25 км н/о +10.2 +9.1 93 +7 +7 1008.2 992.1 +12.5
19 14.06 ЮВ 3 11 км н/о +9.7 +9.2 97 +8 +8 1008.4 992.2
20 14.06 В 2 14 км н/о +9.7 +9.2 97 +8 +8 1008.9 992.8
21 14.06 Ю 4 35 км н/о +9.6 +8.6 93 +7 +7 1009.5 993.3
22 14.06 ЮВ 4 30 км н/о +9.4 +8.5 94 +7 +7 1010.0 993.8
23 14.06 ЮВ 4 35 км н/о +10.1 +8.3 89 +7 +7 1010.3 994.1
00 15.06 В 3 29 км н/о +9.6 +8.0 90 +7 +7 1010.3 994.1
01 15.06 В 3 22 км н/о +9.6 +8.1 90 +7 +7 1010.3 994.0
02 15.06 ЮВ 6 25 км н/о +10.0 +8.9 93 +7 +7 1010.2 994.0
03 15.06 В 6 35 км н/о +10.2 +8.7 90 +7 +7 1010.0 993.9
04 15.06 В 6 19 км н/о +10.1 +9.1 94 +7 +7 1009.8 993.6
05 15.06 В 6 12 км н/о +10.3 +9.8 97 +7 +7 1009.6 993.4
06 15.06 В 4 <100 м туман н/о +10.3 +10.2 99 +7 +7 1009.5 993.4 +9.0 0.2
07 15.06 В 4 <100 м туман н/о +10.2 +10.2 100 +8 +8 1009.8 993.6
08 15.06 ЮВ 3 100 м туман н/о +10.8 +10.8 100 +9 +9 1009.6 993.5
09 15.06 В 3 <100 м туман н/о +10.9 +10.9 100 +9 +9 1010.0 993.8
10 15.06 ЮВ 4 1600 м в посл. час туман н/о +11.6 +11.6 100 +9 +9 1009.9 993.8
11 15.06 ЮВ 3 5000 м в посл. час туман н/о +11.3 +11.3 100 +10 +10 1010.0 993.9
12 15.06 ЮВ 3 3400 м в посл. час туман н/о +11.6 +11.3 98 +10 +10 1009.9 993.8
13 15.06 В 4 2800 м дымка н/о +12.1 +11.5 96 +10 +10 1010.0 993.9
14 15.06 ЮВ 4 11 км н/о +12.3 +11.5 95 +10 +10 1010.0 994.0
15 15.06 ЮВ 3 9000 м дым н/о +11.8 +10.6 92 +10 +10 1009.7 993.7
16 15.06 ЮВ 4 11 км н/о +12.6 +10.8 89 +11 +11 1009.8 993.7
17 15.06 В 4 10 км н/о +11.4 +10.3 93 +9 +9 1009.3 993.2
18 15.06 В 3 10 км н/о +11.3 +10.0 92 +10 +10 1009.3 993.2 +13.5
19 15.06 ЮВ 2 11 км н/о +11.2 +10.2 94 +10 +10 1009.1 993.0
20 15.06 В 3 7000 м дымка н/о +10.7 +10.1 96 +8 +8 1008.9 992.8
21 15.06 В 3 7000 м дымка н/о +10.3 +10.1 99 +8 +8 1009.0 992.8
22 15.06 ЮВ 3 2700 м слаб. ливневой дождь н/о +10.4 +10.3 99 +8 +8 1009.2 993.0
23 15.06 З 3 9000 м слаб. морось н/о +10.1 +10.0 99 +8 +8 1008.9 992.8
00 16.06 ЮЗ 2 40 км слаб. дождь н/о +9.4 +8.7 95 +8 +8 1008.5 992.3 1
01 16.06 Ю 3 6000 м в посл. час дождь н/о +9.3 +9.0 98 +7 +7 1008.4 992.2
02 16.06 Ю 3 17 км н/о +9.1 +8.8 98 +6 +6 1008.2 992.0
03 16.06 ЮЗ 4 15 км н/о +9.0 +8.8 99 +6 +6 1008.2 992.0
04 16.06 ЮЗ 3 14 км н/о +8.2 +7.8 97 +6 +6 1008.0 991.7
05 16.06 ЮЗ 3 19 км н/о +8.4 +7.9 97 +6 +6 1008.2 992.0
06 16.06 ЮЗ 3 14 км н/о +9.5 +9.1 97 +7 +7 1008.5 992.4 +8.1 1
07 16.06 ЮЗ 5 18 км н/о +10.8 +9.7 93 +8 +8 1008.7 992.5
08 16.06 Ю 6 35 км н/о +11.2 +9.7 90 +8 +8 1009.0 992.9
09 16.06 Ю 6 23 км н/о +11.7 +9.8 88 +9 +9 1009.1 993.0
10 16.06 Ю 7 22 км н/о +12.4 +10.4 88 +10 +10 1009.4 993.3
11 16.06 Ю 6 27 км н/о +12.1 +10.3 89 +9 +9 1009.4 993.3
12 16.06 Ю 4 20 км н/о +11.4 +10.1 92 +9 +9 1009.9 993.8
13 16.06 Ю 6 21 км н/о +12.0 +10.6 91 +9 +9 1009.8 993.7
14 16.06 Ю 6 17 км н/о +13.6 +11.5 87 +11 +11 1010.0 994.0
15 16.06 Ю 4 30 км н/о +11.6 +9.5 87 +9 +9 1010.1 994.0
16 16.06 Ю 4 25 км н/о +12.7 +10.7 88 +11 +11 1009.8 993.8
17 16.06 Ю 3 18 км н/о +12.3 +10.3 88 +11 +11 1009.6 993.6
18 16.06 Ю 4 24 км н/о +11.7 +10.1 90 +10 +10 1009.7 993.6 +14.0
19 16.06 Ю 4 15 км слаб. ливневой дождь н/о +11.0 +10.0 94 +9 +9 1009.8 993.7
20 16.06 Ю 4 9000 м в посл. час дождь н/о +10.7 +10.2 97 +8 +8 1009.2 993.1
21 16.06 Ю 6 17 км слаб. морось с дождем н/о +10.9 +9.8 93 +8 +8 1009.2 993.0
22 16.06 ЮЗ 2 10 км в посл. час дождь н/о +10.5 +10.1 97 +9 +9 1008.7 992.5
23 16.06 Ю 3 15 км н/о +9.8 +9.1 95 +8 +8 1007.9 991.8
00 17.06 Ю 8 12 км слаб. ливневой дождь н/о +10.4 +10.0 97 +6 +6 1007.2 991.1 0.4
01 17.06 ЮВ 8 14 км слаб. дождь н/о +10.6 +10.2 97 +7 +7 1006.1 990.0
02 17.06 Ю 11
{15}
12 км в посл. час дождь н/о +10.6 +10.4 99 +6 +6 1005.3 989.2
03 17.06 Ю 11
{16}
9000 м дымка н/о +10.5 +10.2 98 +6 +6 1005.2 989.1
04 17.06 ЮЗ 12
{16}
16 км н/о +10.6 +9.8 95 +6 +6 1005.2 989.1
05 17.06 ЮЗ 10
{16}
14 км н/о +10.5 +9.8 95 +6 +6 1005.6 989.5
06 17.06 ЮЗ 12
{17}
29 км н/о +11.1 +9.3 89 +7 +7 1006.0 989.9 +9.8 1
07 17.06 ЮЗ 13
{17}
25 км н/о +11.4 +9.5 88 +7 +7 1006.1 990.1
08 17.06 ЮЗ 8
{15}
45 км н/о +12.5 +9.5 82 +9 +9 1007.3 991.3
09 17.06 Ю 8
{14}
18 км н/о +12.1 +9.8 86 +9 +9 1007.6 991.6
10 17.06 Ю 8 35 км н/о +13.3 +10.9 85 +10 +10 1007.6 991.7
11 17.06 Ю 8 26 км н/о +12.0 +10.0 88 +9 +9 1007.9 991.9
12 17.06 Ю 6 10 км в посл. час дождь н/о +12.2 +11.2 94 +9 +9 1008.1 992.1 0.6
13 17.06 Ю 7 18 км в посл. час дождь н/о +12.0 +10.1 88 +9 +9 1008.1 992.0
14 17.06 ЮЗ 5 45 км в посл. час дождь н/о +12.5 +10.8 89 +10 +10 1008.2 992.2
15 17.06 Ю 5
{15}
30 км в посл. час дождь н/о +13.1 +11.7 91 +11 +11 1007.7 991.7
16 17.06 ЮЗ 9
{14}
19 км в посл. час дождь н/о +12.2 +10.9 92 +9 +9 1007.6 991.6
17 17.06 Ю 8 5000 м ливневой дождь н/о +11.7 +10.3 91 +8 +8 1007.6 991.6
18 17.06 ЮЗ 11
{15}
21 км в посл. час дождь н/о +14.2 +10.5 78 +11 +11 1007.2 991.3 +14.4 6
19 17.06 ЮЗ 10
{17}
30 км н/о +13.6 +9.6 77 +11 +11 1007.9 991.9
20 17.06 ЮЗ 6 35 км н/о +12.5 +9.0 79 +10 +10 1008.7 992.7
21 17.06 ЮЗ 7 30 км н/о +11.5 +9.1 85 +8 +8 1009.1 993.0
22 17.06 ЮЗ 7 40 км н/о +10.4 +8.6 89 +7 +7 1009.5 993.4
23 17.06 ЮЗ 8 45 км н/о +10.6 +8.7 88 +7 +7 1009.6 993.5
00 18.06 ЮЗ 6 45 км н/о +10.1 +8.6 90 +7 +7 1009.7 993.6
01 18.06 ЮЗ 8 45 км н/о +10.2 +9.0 92 +6 +6 1009.5 993.3
02 18.06 ЮЗ 7 23 км н/о +9.7 +8.9 95 +6 +6 1009.3 993.2
03 18.06 ЮЗ 7 14 км н/о +9.3 +8.8 97 +5 +5 1009.2 993.0
04 18.06 ЮЗ 8 17 км н/о +9.7 +9.1 96 +5 +5 1008.8 992.6
05 18.06 ЮЗ 7 15 км н/о +9.7 +9.1 96 +6 +6 1008.6 992.4
06 18.06 ЮЗ 7 14 км н/о +11.3 +10.3 94 +8 +8 1008.5 992.5 +9.2
07 18.06 ЮЗ 9 20 км н/о +11.2 +10.0 92 +7 +7 1008.6 992.5
08 18.06 ЮЗ 9 16 км н/о +12.1 +10.3 89 +9 +9 1008.4 992.3
09 18.06 Ю 10
{13}
н/о н/о +13.1 +10.5 84
10 18.06 ЮЗ 10-16
{16}
45 км н/о +13.8 +8.3 69 +11 +11 1007.9 992.0
11 18.06 ЮЗ 12
{15}
45 км н/о +14.3 +8.2 67 +11 +11 1008.3 992.3
12 18.06 ЮЗ 10
{15}
45 км н/о +15.0 +9.5 70 +13 +13 1008.4 992.5
13 18.06 ЮЗ 10
{15}
40 км н/о +15.5 +9.4 67 +13 +13 1008.5 992.7
14 18.06 ЮЗ 10
{14}
35 км н/о +17.6 +10.0 61 +16 +16 1008.3 992.6
15 18.06 ЮЗ 10
{14}
30 км н/о +17.4 +10.3 63 +16 +16 1008.4 992.6
16 18.06 ЮЗ 10
{14}
45 км н/о +17.3 +9.0 58 +16 +16 1008.4 992.7
17 18.06 З 10
{13}
35 км н/о +16.4 +8.2 58 +15 +15 1008.4 992.6
18 18.06 З 9 40 км н/о +15.1 +8.9 66 +13 +13 1008.9 993.0 +18.1
19 18.06 ЮЗ 7 40 км н/о +15.3 +8.8 65 +14 +14 1008.8 992.9
20 18.06 ЮЗ 7 50 км н/о +13.8 +9.3 74 +12 +12 1009.0 993.1
21 18.06 З 5 45 км н/о +12.2 +9.0 81 +10 +10 1009.1 993.1
22 18.06 ЮЗ 7 45 км н/о +11.6 +8.9 83 +8 +8 1009.3 993.2
23 18.06 З 5 45 км н/о +10.9 +8.6 86 +8 +8 1009.3 993.2
00 19.06 ЮЗ 6 40 км н/о +10.4 +8.5 88 +7 +7 1009.0 992.9
01 19.06 ЮЗ 4 40 км н/о +9.6 +8.4 92 +7 +7 1008.9 992.7
02 19.06 З 3 35 км н/о +9.2 +8.1 93 +7 +7 1008.5 992.3
03 19.06 З 2 45 км н/о +8.8 +8.0 95 +7 +7 1008.4 992.2
04 19.06 ЮЗ 2 45 км н/о +9.3 +8.6 95 +8 +8 1008.2 992.0
05 19.06 Ю 3 30 км н/о +9.8 +9.0 95 +8 +8 1007.8 991.6
06 19.06 ЮЗ 2 22 км н/о +11.3 +10.0 92 +10 +10 1007.6 991.5 +8.5
07 19.06 ЮЗ 2 28 км н/о +12.8 +10.8 88 +12 +12 1007.3 991.3
08 19.06 Ю 4 19 км н/о +12.0 +10.1 88 +10 +10 1007.0 990.9

 

Местоположение метеостанции Инвербери (Великобритания): широта 56.85 долгота -2.27 высота над уровнем моря 134 м.

В архиве по умолчанию представлена погода в Инвербери за последнюю неделю. Архивные данные за месяц целиком и за предыдущие месяцы, начиная с января 2011 года, Вы можете получить, выбрав интересующий диапазон дат из раскрывающегося списка и нажав кнопку "Ввод!".


*Определитесь, кто Вы:
робот инопланетянин человек

Внимание! Время в таблицах - всемирное. Для получения местного времени необходимо прибавить поправку, которая равна 0 ч.

Смотрите также архив погоды в соседних городах и на ближайших метеорологических станциях:

Погода в Абердине (Великобритания) (39 км)
Погода в Абойне (Великобритания) (43 км)
Погода в Леучарсе (Великобритания) (62 км)
Погода на Кэрнуэлле (Великобритания) (70 км)
Погода на Кайрнгорме (Великобритания) (88 км)
Погода на Авморе (Великобритания) (102 км)
Погода в Страталлане (Великобритания) (107 км)
Погода в Лоссимуте (Великобритания) (116 км)
Погода в Кинлоссе (Великобритания) (118 км)
Погода в Эдинбурге (Великобритания) (122 км)

Пояснения к столбцам:

Ветер - указаны скорость ветра в м/с - средняя за 10 мин, порывы в срок и между сроками (в фигурных скобках) и направление, откуда дует ветер: С - северный, СВ - северо-восточный, В - восточный, ЮВ - юго-восточный, Ю - южный, ЮЗ - юго-западный, З - западный, СЗ - северо-западный.
Видимость - горизонтальная дальность видимости в метрах или километрах. При видимости от 1 до 10 км при отсутствии осадков обычно наблюдается дымка, при ухудшении видимости до 1 км и менее - туман. В сухую погоду видимость может ухудшаться дымом, пылью или мглою.
Явления - указаны атмосферные явления, наблюдавшиеся в срок или в последний час перед сроком; фигурными скобками обозначены явления, наблюдавшиеся между сроками (за 1-3 часа до срока); квадратными скобками обозначены град или гололедные отложения с указанием их диаметра в мм.
Облачность - указаны через наклонную черту общая и нижняя облачность в баллах и высота нижней границы облаков в метрах; квадратными скобками обозначены формы облаков: Ci - перистые, Cs - перисто-слоистые, Cc - перисто-кучевые, Ac - высококучевые, As - высокослоистые, Sc - слоисто-кучевые, Ns - слоисто-дождевые, Cu - кучевые, Cb - кучево-дождевые. Подробнее классификацию облаков см. в Атласе облаков (PDF).
T - Температура воздуха - температура, измеренная на высоте 2 м над землей.
Td - Температура точки росы - температура, при понижении до которой содержащийся в воздухе водяной пар достигнет насыщения.
f - Относительная влажность воздуха - влажноcть воздуха, измеренная на высоте 2 м над землей.
Te - Эффективная температура - температура, которую ощущает одетый по сезону человек в тени. Характеристика душности погоды. При расчете учитывается влияние влажности воздуха и скорости ветра на теплоощущения человека.
Tes - Эффективная температура на солнце - температура, которую ощущает человек, с поправкой на солнечный нагрев. Характеристика знойности погоды. Зависит от высоты солнца над горизонтом, облачности и скорости ветра. Ночью, в пасмурную погоду, а также при ветре 12 м/с и более поправка равна нулю.
P - Атмосферное давление - приведенное к уровню моря атмосферное давление.
Po - Атмосферное давление - измеренное на уровне метеостанции атмосферное давление.
Tmin - Минимальная температура - минимум температуры воздуха на высоте 2 м над землей.
Tmax - Максимальная температура - максимум температуры воздуха на высоте 2 м над землей.
R - Количество осадков - Количество выпавших осадков за период времени, мм. При наведении курсора мыши на число - период времени, за который выпало указанное количество осадков.
R24 - Количество осадков - Количество выпавших осадков за 24 часа, мм.
S - Снежный покров - Высота снежного покрова, см. При наведении курсора мыши на число - состояние снежного покрова и степень покрытия местности в баллах.